Waarnemingen

Advertentie
Mijn weer
Görlitz, Duitsland (10499): temperatuur & dauwpunt: 18.02.2017 16:00:00 - 24.02.2017 16:00:00 (CET)Görlitz, Duitsland (10499): temperatuur 5cm & temperatuur -5cm: 18.02.2017 16:00:00 - 24.02.2017 16:00:00 (CET)Görlitz, Duitsland (10499): temperatuur -20cm & temperatuur -100cm: 18.02.2017 16:00:00 - 24.02.2017 16:00:00 (CET)Görlitz, Duitsland (10499): windsnelheid & windstoten: 18.02.2017 16:00:00 - 24.02.2017 16:00:00 (CET)Görlitz, Duitsland (10499): windrichting: 18.02.2017 16:00:00 - 24.02.2017 16:00:00 (CET)Görlitz, Duitsland (10499): luchtdruk: 18.02.2017 16:00:00 - 24.02.2017 16:00:00 (CET)Görlitz, Duitsland (10499): zicht: 18.02.2017 16:00:00 - 24.02.2017 16:00:00 (CET)Görlitz, Duitsland (10499): Zonneschijnduur: 18.02.2017 16:00:00 - 24.02.2017 16:00:00 (CET)Görlitz, Duitsland (10499): neerslag: 18.02.2017 16:00:00 - 24.02.2017 16:00:00 (CET)
Datum & Tijd tt [°C] td [°C] tt 5cm [°C] tt -5cm [°C] tt -20cm [°C] tt -100cm [°C] ff [km/u] ff [kn] fx [km/u] fx [kn] dd ppp [hPa] vv [km] sd [min] rr [mm]
24.02.2017 16:00:00 0,4 0,1 0,1 2,2 3,8 4,1 8 5 22 12 W 1009,5 1,0 0 0,3
24.02.2017 15:00:00 0,5 0,4 0,1 2,4 4,0 4,1 10 5 27 15 WNW 1008,5 8 0 1,2
24.02.2017 14:00:00 0,4 0,3 0,1 2,9 4,2 4,1 13 7 42 23 WNW 1007,7 0,7 0 2,0
24.02.2017 13:00:00 0,4 0,2 0,2 3,7 4,2 4,0 19 11 54 29 NW 1006,3 0,7 0 1,6
24.02.2017 12:00:00 3,0 0,5 3,3 4,1 4,2 4,0 39 21 64 35 W 1004,4 20 1 0,0
24.02.2017 11:00:00 2,9 0,8 3,7 3,8 4,3 4,0 34 19 74 40 W 1002,9 18 0 0,2
24.02.2017 10:00:00 2,6 0,8 2,6 3,6 4,3 4,0 33 18 66 36 W 1001,6 14 0 0,0
24.02.2017 09:00:00 2,7 0,9 2,3 3,7 4,4 4,0 40 21 70 38 W 999,4 15 0 0,4
24.02.2017 08:00:00 2,5 0,8 2,1 3,9 4,5 4,0 45 25 74 40 W 997,1 13 0 0,2
24.02.2017 07:00:00 4,5 1,0 3,6 4,0 4,6 4,0 40 22 72 39 W 994,6 18 0 0,0
24.02.2017 06:00:00 6,6 -0,5 5,3 4,1 4,7 3,9 41 22 72 39 W 992,5 60 0 0,0
24.02.2017 05:00:00 7,2 -1,0 5,7 4,1 4,8 3,9 36 20 68 37 W 991,6 70 0 0,0
24.02.2017 04:00:00 7,2 -1,2 5,6 4,2 4,9 3,9 36 20 69 37 WZW 991,3 70 0 0,0
24.02.2017 03:00:00 7,4 -1,4 5,2 4,4 5,0 3,9 46 25 72 39 WZW 991,2 60 0 0,0
24.02.2017 02:00:00 7,4 -0,4 5,3 4,7 5,1 3,9 37 20 60 32 WZW 991,5 60 0 0,0
24.02.2017 01:00:00 8,0 1,0 5,5 5,1 5,2 3,9 33 18 63 34 ZW 991,0 60 0 0,0
24.02.2017 00:00:00 7,6 3,0 5,3 5,5 5,3 3,9 28 15 51 28 WZW 991,2 45 0 0,0
23.02.2017 23:00:00 7,5 3,4 5,4 5,8 5,3 3,9 29 15 77 42 W 991,7 45 0 0,5
23.02.2017 22:00:00 9,6 4,9 7,3 5,9 5,3 3,9 37 20 62 33 ZW 991,1 11 0 0,0
23.02.2017 21:00:00 10,7 4,0 8,6 5,9 5,3 3,8 24 13 49 26 WZW 991,5 45 0 0,0
23.02.2017 20:00:00 9,5 4,5 8,1 5,9 5,3 3,8 20 11 42 23 ZW 991,7 35 0 0,0
23.02.2017 19:00:00 9,4 4,7 8,2 6,0 5,3 3,8 29 16 41 22 ZZW 991,9 40 0 0,0
23.02.2017 18:00:00 9,1 5,0 7,9 6,3 5,2 3,8 26 14 45 24 ZZW 992,4 40 0 0,0
23.02.2017 17:00:00 8,9 5,0 8,0 6,5 5,2 3,8 23 13 34 19 ZZW 993,4 40 0 0,0
23.02.2017 16:00:00 8,8 5,9 7,9 6,6 5,1 3,8 26 14 46 25 ZZW 995,1 27 0 0,0
23.02.2017 15:00:00 9,0 6,6 8,3 6,5 4,9 3,8 29 16 40 21 Z 996,5 22 0 0,1
23.02.2017 14:00:00 8,6 7,0 7,9 6,3 4,8 3,8 24 13 38 20 ZZW 998,1 22 0 0,4
23.02.2017 13:00:00 8,5 7,2 8,2 5,9 4,6 3,7 21 11 31 17 ZW 999,5 20 0 0,4
23.02.2017 12:00:00 7,0 6,7 7,0 5,5 4,5 3,7 13 7 19 10 Z 1000,7 13 0 0,8
23.02.2017 11:00:00 6,4 6,2 6,4 5,3 4,5 3,7 11 6 22 12 ZZW 1001,8 4,5 0 0,1
23.02.2017 10:00:00 6,3 5,7 6,4 4,9 4,4 3,7 18 10 27 15 WZW 1002,3 6 0 0,0
23.02.2017 09:00:00 6,4 4,3 5,4 4,6 4,4 3,7 17 9 31 17 WZW 1002,9 17 0 0,0
23.02.2017 08:00:00 6,2 4,6 5,2 4,5 4,4 3,7 18 10 29 16 WZW 1003,0 17 0 0,2
23.02.2017 07:00:00 5,8 4,9 4,9 4,5 4,4 3,7 12 7 23 13 WZW 1002,8 15 0 0,3
23.02.2017 06:00:00 5,5 4,7 4,7 4,5 4,5 3,7 15 8 38 21 WZW 1002,7 10 0 1,3
23.02.2017 05:00:00 5,6 4,6 4,8 4,4 4,5 3,6 21 12 36 19 W 1002,8 6 0 1,7
23.02.2017 04:00:00 5,3 4,2 4,5 4,4 4,6 3,6 21 11 29 16 WZW 1002,8 8 0 1,7
23.02.2017 03:00:00 4,9 3,7 4,2 4,4 4,7 3,6 20 11 42 23 ZW 1002,7 9 0 0,6
23.02.2017 02:00:00 4,9 3,2 4,0 4,5 4,8 3,6 26 14 43 23 WZW 1003,1 15 0 0,2
23.02.2017 01:00:00 4,3 2,1 3,4 4,6 4,9 3,6 25 13 44 24 WZW 1003,1 27 0 0,1
23.02.2017 00:00:00 3,8 1,6 3,2 5,0 5,0 3,6 29 15 51 27 W 1003,5 25 0 0,7
22.02.2017 23:00:00 3,9 2,6 3,6 5,4 5,0 3,6 32 17 56 31 W 1003,8 8 0 2,0
22.02.2017 22:00:00 5,4 4,1 4,8 5,8 5,0 3,6 30 16 59 32 WNW 1002,6 9 0 1,9
22.02.2017 21:00:00 6,1 5,5 5,8 6,2 5,0 3,6 22 12 63 34 NW 1001,4 5 0 1,4
22.02.2017 20:00:00 10,0 6,0 8,6 6,2 4,9 3,6 41 22 70 38 WZW 999,5 40 0 0,0
22.02.2017 19:00:00 10,5 5,9 9,2 6,2 4,8 3,6 40 22 67 36 WZW 999,4 45 0 0,0
22.02.2017 18:00:00 10,3 6,2 9,1 6,3 4,7 3,6 34 19 55 30 WZW 1000,1 45 0 0,0
22.02.2017 17:00:00 10,6 6,2 9,5 6,3 4,6 3,5 32 18 51 28 WZW 1000,7 55 0 0,0
22.02.2017 16:00:00 10,8 6,2 9,8 6,3 4,4 3,5 34 18 54 29 WZW 1001,3 40 0 0,0
22.02.2017 15:00:00 10,4 6,5 9,5 6,1 4,2 3,5 30 16 55 30 WZW 1001,7 25 0 0,0
22.02.2017 14:00:00 10,7 6,5 9,9 6,0 4,0 3,5 33 18 56 31 WZW 1001,8 25 0 0,0
22.02.2017 13:00:00 10,9 6,5 9,9 5,7 3,8 3,5 32 17 50 27 WZW 1001,9 40 0 0,1
22.02.2017 12:00:00 10,5 6,9 8,8 5,3 3,6 3,5 25 13 44 24 WZW 1002,5 27 0 0,1
22.02.2017 11:00:00 9,8 6,6 8,9 4,8 3,4 3,4 32 17 46 25 ZW 1002,9 35 0 0,0
22.02.2017 10:00:00 8,2 6,2 8,1 4,0 3,3 3,4 30 16 43 23 ZZW 1003,5 23 0 0,0
22.02.2017 09:00:00 6,7 5,1 5,9 3,4 3,3 3,4 31 17 41 22 ZW 1004,3 27 0 0,0
22.02.2017 08:00:00 5,1 4,0 4,6 3,2 3,2 3,4 26 14 46 25 ZZW 1005,1 25 0 0,2
22.02.2017 07:00:00 5,0 3,7 4,3 2,9 3,2 3,4 32 17 47 26 ZZW 1005,6 8 0 0,0
22.02.2017 06:00:00 5,3 2,7 4,6 2,6 3,3 3,4 29 15 42 23 Z 1007,0 15 0 0,0
22.02.2017 05:00:00 5,3 1,8 4,4 2,3 3,4 3,4 20 11 30 16 ZZW 1008,4 23 0 0,0
22.02.2017 04:00:00 4,3 1,3 2,8 2,3 3,5 3,3 18 10 25 14 ZZW 1009,7 23 0 0,0
22.02.2017 03:00:00 3,9 1,4 2,6 2,4 3,6 3,3 17 9 26 14 ZZW 1011,3 27 0 0,0
22.02.2017 02:00:00 2,5 0,7 1,0 2,4 3,8 3,3 11 6 16 9 ZW 1012,7 27 0 0,0
22.02.2017 01:00:00 3,2 1,0 1,0 2,7 4,0 3,3 14 7 21 11 ZW 1013,3 23 0 0,0
22.02.2017 00:00:00 2,5 0,7 0,4 3,0 4,2 3,3 13 7 20 11 ZW 1013,6 27 0 0,0
21.02.2017 23:00:00 4,1 1,5 2,1 3,3 4,3 3,3 16 9 23 12 ZW 1013,6 35 0 0,0
21.02.2017 22:00:00 4,8 1,6 2,6 3,7 4,5 3,3 14 8 26 14 W 1013,2 30 0 0,0
21.02.2017 21:00:00 5,1 1,8 3,1 4,1 4,7 3,2 16 9 39 21 W 1013,1 30 0 0,0
21.02.2017 20:00:00 5,5 2,0 3,6 4,5 4,8 3,2 18 10 33 18 W 1012,5 30 0 0,0
21.02.2017 19:00:00 5,5 2,9 4,2 4,9 4,9 3,2 16 9 34 19 W 1012,3 30 0 0,0
21.02.2017 18:00:00 6,2 2,1 4,5 5,6 5,0 3,2 18 10 40 22 WNW 1011,4 45 0 0,0
21.02.2017 17:00:00 6,9 2,6 5,9 6,2 5,0 3,2 23 12 46 25 WNW 1010,1 22 8 0,0
21.02.2017 16:00:00 7,3 3,2 6,7 6,6 4,9 3,2 28 15 46 25 WNW 1009,6 25 35 0,0
21.02.2017 15:00:00 7,0 3,9 7,5 6,7 4,7 3,2 28 15 68 37 WNW 1009,1 35 19 0,1
21.02.2017 14:00:00 8,4 4,9 9,8 6,4 4,6 3,2 26 14 51 27 WNW 1008,4 45 20 0,0
21.02.2017 13:00:00 7,4 5,3 7,4 6,1 4,5 3,1 28 15 51 28 W 1008,4 32 0 0,0
21.02.2017 12:00:00 7,8 5,0 7,0 6,1 4,4 3,1 30 16 51 28 W 1007,8 26 0 0,1
21.02.2017 11:00:00 8,8 6,3 7,7 5,9 4,3 3,1 22 12 44 24 W 1007,5 30 0 0,0
21.02.2017 10:00:00 8,5 7,2 7,8 5,6 4,2 3,1 17 9 32 17 W 1007,6 18 0 0,0
21.02.2017 09:00:00 8,3 7,1 7,5 5,5 4,2 3,1 17 9 36 19 W 1007,6 21 0 0,0
21.02.2017 08:00:00 8,3 7,0 7,3 5,4 4,1 3,1 23 13 42 23 W 1007,7 23 0 0,0
21.02.2017 07:00:00 8,1 7,4 7,3 5,3 4,0 3,1 23 12 38 20 W 1007,4 4,1 0 0,2
21.02.2017 06:00:00 7,8 7,2 7,1 5,3 3,9 3,1 22 12 39 21 W 1007,2 3,8 0 1,7
21.02.2017 05:00:00 8,2 7,5 7,4 5,1 3,8 3,1 24 13 41 22 W 1007,4 12 0 0,1
21.02.2017 04:00:00 8,2 7,2 7,3 4,9 3,7 3,0 32 18 49 27 W 1007,5 12 0 0,1
21.02.2017 03:00:00 7,8 6,9 6,8 4,8 3,7 3,0 25 13 39 21 WZW 1007,6 15 0 0,0
21.02.2017 02:00:00 7,6 6,7 6,7 4,7 3,6 3,0 22 12 35 19 WZW 1008,1 5 0 1,2
21.02.2017 01:00:00 7,7 6,5 6,6 4,6 3,5 3,0 25 14 40 22 W 1008,5 15 0 0,0
21.02.2017 00:00:00 7,6 6,3 6,5 4,4 3,5 3,0 31 17 46 25 WZW 1008,5 12 0 0,1
20.02.2017 23:00:00 7,2 6,0 6,2 4,2 3,5 3,0 27 15 40 21 WZW 1008,9 12 0 0,0
20.02.2017 22:00:00 6,0 5,6 5,4 4,1 3,5 3,0 21 11 34 18 ZW 1009,9 3,0 0 0,2
20.02.2017 21:00:00 5,4 4,9 4,9 4,1 3,4 3,0 21 12 32 17 ZW 1010,7 3,5 0 1,3
20.02.2017 20:00:00 5,3 4,5 4,7 4,2 3,4 3,0 25 14 34 19 ZW 1011,0 4,0 0 1,3
20.02.2017 19:00:00 5,4 4,2 4,7 4,3 3,4 3,0 26 14 36 20 ZW 1011,6 5 0 0,9
20.02.2017 18:00:00 6,2 3,0 5,0 4,5 3,4 3,0 29 15 41 22 ZW 1011,8 10 0 0,0
20.02.2017 17:00:00 6,7 2,5 6,2 4,8 3,3 3,0 27 15 39 21 ZW 1012,3 22 0 0,0
20.02.2017 16:00:00 7,2 2,8 6,9 5,0 3,1 3,0 27 14 38 20 ZW 1013,3 21 2 0,0
20.02.2017 15:00:00 7,5 2,7 7,6 5,0 2,9 3,0 27 15 37 20 ZW 1014,1 18 0 0,0
20.02.2017 14:00:00 7,2 2,6 7,4 4,9 2,7 2,9 29 16 45 24 ZW 1014,8 23 0 0,0
20.02.2017 13:00:00 7,2 2,7 7,8 4,7 2,4 2,9 28 15 40 22 ZW 1016,0 22 10 0,0
20.02.2017 12:00:00 7,1 2,9 9,8 3,9 2,2 2,9 26 14 38 21 ZW 1017,0 19 30 0,0
20.02.2017 11:00:00 6,0 2,2 6,1 3,2 2,1 2,9 23 13 32 17 ZW 1017,8 22 0 0,0
20.02.2017 10:00:00 5,3 2,3 5,7 2,6 2,0 2,9 18 10 28 15 ZW 1018,2 24 0 0,0
20.02.2017 09:00:00 4,3 2,2 4,1 2,4 2,0 3,0 19 10 30 16 ZW 1018,8 20 0 0,0
20.02.2017 08:00:00 4,1 2,4 3,8 2,1 1,9 3,0 14 8 22 12 ZW 1019,5 9 0 0,0
20.02.2017 07:00:00 3,8 2,5 3,2 2,1 1,9 3,0 16 9 23 13 WZW 1019,3 5 0 0,0
20.02.2017 06:00:00 3,5 2,7 3,0 2,0 1,9 2,9 16 8 20 11 ZW 1019,3 3,0 0 0,0
20.02.2017 05:00:00 3,6 2,4 3,1 1,9 1,8 2,9 14 8 19 11 ZW 1019,7 3,0 0 0,0
20.02.2017 04:00:00 3,5 2,4 2,9 1,9 1,8 2,9 13 7 18 10 WZW 1019,7 3,0 0 0,0
20.02.2017 03:00:00 3,4 2,0 2,8 1,8 1,8 2,9 13 7 22 12 WZW 1019,8 5 0 0,0
20.02.2017 02:00:00 3,0 2,2 2,5 1,7 1,8 2,9 17 9 20 11 ZW 1019,9 3,0 0 0,0
20.02.2017 01:00:00 3,3 1,9 2,5 1,6 1,8 2,9 14 7 20 11 WZW 1020,2 13 0 0,0
20.02.2017 00:00:00 3,5 0,7 2,7 1,5 1,9 2,9 14 8 19 11 WZW 1020,2 15 0 0,0
19.02.2017 23:00:00 3,4 0,3 2,3 1,4 2,0 2,9 11 6 16 9 ZW 1020,3 15 0 0,0
19.02.2017 22:00:00 2,4 -0,2 1,2 1,4 2,1 2,9 11 6 15 8 ZW 1020,2 15 0 0,0
19.02.2017 21:00:00 2,4 -0,4 0,8 1,7 2,2 2,9 15 8 18 10 ZW 1020,0 15 0 0,0
19.02.2017 20:00:00 2,3 -0,3 1,3 2,0 2,3 2,9 10 6 29 15 ZW 1020,1 15 0 0,0
19.02.2017 19:00:00 3,3 -0,3 1,6 2,5 2,3 2,9 17 9 26 14 ZZW 1019,6 15 0 0,0
19.02.2017 18:00:00 2,7 -0,3 1,4 3,1 2,3 2,9 15 8 22 12 ZW 1020,2 16 0 0,0
19.02.2017 17:00:00 4,2 0,2 3,6 3,6 2,1 2,9 17 9 29 16 ZZW 1020,0 22 0 0,0
19.02.2017 16:00:00 5,0 0,1 4,7 4,0 1,9 2,9 21 12 34 18 ZZW 1020,2 21 0 0,0
19.02.2017 15:00:00 5,5 0,1 5,4 4,3 1,6 2,9 21 12 35 19 ZW 1020,5 25 26 0,0
19.02.2017 14:00:00 6,1 0,1 7,6 3,9 1,2 2,9 24 13 34 18 ZW 1020,8 25 60 0,0
19.02.2017 13:00:00 5,8 0,2 8,1 2,8 0,9 2,9 23 12 38 21 ZW 1021,7 26 60 0,0
19.02.2017 12:00:00 5,5 0,1 8,6 1,1 0,8 2,9 24 13 33 18 ZW 1022,6 26 59 0,0
19.02.2017 11:00:00 4,6 0,0 6,3 0,4 0,8 2,9 22 12 31 17 ZZW 1023,2 25 60 0,0
19.02.2017 10:00:00 3,9 -0,6 5,0 0,3 0,8 2,9 20 11 32 17 ZZW 1023,6 25 29 0,0
19.02.2017 09:00:00 2,6 -0,5 1,8 0,3 0,8 2,9 18 10 24 13 ZZW 1024,1 27 0 0,0
19.02.2017 08:00:00 2,0 -0,6 0,9 0,3 0,8 2,9 15 8 19 10 ZZW 1024,3 27 0 0,0
19.02.2017 07:00:00 1,5 -0,5 0,4 0,3 0,8 2,9 10 5 15 8 ZW 1024,5 21 0 0,0
19.02.2017 06:00:00 1,4 -0,2 0,5 0,3 0,8 2,9 10 5 12 6 ZW 1024,9 15 0 0,0
19.02.2017 05:00:00 1,3 -0,3 0,3 0,3 0,8 2,9 8 4 10 5 ZW 1025,3 15 0 0,0
19.02.2017 04:00:00 1,4 -0,2 0,4 0,3 0,7 2,9 7 4 11 6 ZW 1025,6 12 0 0,0
19.02.2017 03:00:00 1,4 0,2 0,4 0,3 0,7 2,9 9 5 11 6 ZW 1026,0 10 0 0,0
19.02.2017 02:00:00 1,2 0,3 0,4 0,3 0,7 2,9 8 5 9 5 ZW 1026,4 18 0 0,0
19.02.2017 01:00:00 1,3 0,4 0,4 0,3 0,7 2,9 7 4 12 6 ZW 1026,6 20 0 0,0
19.02.2017 00:00:00 1,3 0,1 0,5 0,3 0,7 2,9 8 4 12 7 ZW 1027,0 20 0 0,0
18.02.2017 23:00:00 1,7 -0,1 0,7 0,3 0,7 2,9 8 4 14 8 WZW 1027,0 13 0 0,0
18.02.2017 22:00:00 1,4 1,0 0,9 0,3 0,7 2,9 8 4 12 6 ZW 1027,2 12 0 0,0
18.02.2017 21:00:00 1,4 1,2 1,0 0,3 0,7 2,9 5 3 8 4 ZW 1027,2 3,0 0 0,0
18.02.2017 20:00:00 1,7 1,3 1,0 0,3 0,7 2,9 4 2 13 7 W 1027,3 5 0 0,1
18.02.2017 19:00:00 2,1 1,5 1,4 0,3 0,7 2,9 10 6 16 9 WZW 1027,0 10 0 0,0
18.02.2017 18:00:00 2,3 1,8 1,4 0,3 0,8 3,0 8 4 16 8 W 1027,0 12 0 0,0
18.02.2017 17:00:00 2,6 2,0 1,8 0,2 0,7 2,9 9 5 16 9 W 1026,4 6 0 0,0
18.02.2017 16:00:00 2,9 2,0 2,1 0,2 0,7 2,9 12 6 23 12 W 1026,1 11 0 0,0

tt = temperatuur
td = dauwpunt
tt 5cm = temperatuur 5cm
tt -5cm = temperatuur -5cm
tt -20cm = temperatuur -20cm
tt -100cm = temperatuur -100cm
ff = windsnelheid
fx = windstoten
dd = windrichting
ppp = luchtdruk
vv = zicht
sd = Zonneschijnduur
rr = neerslag

Weerstations in de omgeving